• In Spain
  • List of Countries
  • For 7 days
  • Water Temperature
  • Satellite Maps
  • Weather Map
  • Weather Widgets
  • user-avatar
    Login

    Hourly Weather Razgrad

    Today, 14 November, Wednesday

    Time Temperature Precipitation Wind Pressure Humidity
    00:00 +6°C° 0 mm 2 mps 751 mmHg 87%
    01:00 +6°C° 0 mm 2 mps 751 mmHg 89%
    02:00 +5°C° 0 mm 2 mps 750 mmHg 90%
    03:00 +6°C° 0 mm 1 mps 750 mmHg 90%
    04:00 +6°C° 0 mm 1 mps 750 mmHg 91%
    05:00 +6°C° 0 mm 1 mps 749 mmHg 91%
    06:00 +6°C° 0 mm 1 mps 749 mmHg 90%
    07:00 +6°C° 0 mm 1 mps 749 mmHg 88%
    08:00 +7°C° 0 mm 1 mps 749 mmHg 86%
    09:00 +8°C° 0 mm 1 mps 749 mmHg 80%
    10:00 +10°C° 0 mm 1 mps 749 mmHg 74%
    11:00 +11°C° 0 mm 1 mps 749 mmHg 67%
    12:00 +12°C° 0 mm 2 mps 748 mmHg 65%
    13:00 +12°C° 0 mm 2 mps 748 mmHg 63%
    14:00 +13°C° 0 mm 2 mps 747 mmHg 62%
    15:00 +12°C° 0 mm 2 mps 747 mmHg 63%
    16:00 +12°C° 0 mm 2 mps 747 mmHg 65%
    17:00 +11°C° 0 mm 1 mps 747 mmHg 67%
    18:00 +11°C° 0 mm 1 mps 747 mmHg 69%
    19:00 +11°C° 0 mm 1 mps 747 mmHg 71%
    20:00 +11°C° 0 mm 1 mps 747 mmHg 72%
    21:00 +10°C° 0.2 mm 1 mps 747 mmHg 75%
    22:00 +10°C° 0.2 mm 1 mps 747 mmHg 77%
    23:00 +10°C° 0.2 mm 1 mps 747 mmHg 79%

    Tomorrow, 15 November, Thursday

    Time Temperature Precipitation Wind Pressure Humidity
    00:00 +10°C° 0.4 mm 1 mps 747 mmHg 81%
    01:00 +8°C° 0.4 mm 2 mps 746 mmHg 82%
    02:00 +8°C° 0.4 mm 2 mps 746 mmHg 84%
    03:00 +7°C° 1.6 mm 3 mps 746 mmHg 86%
    04:00 +7°C° 1.6 mm 3 mps 746 mmHg 88%
    05:00 +5°C° 1.6 mm 4 mps 746 mmHg 89%
    06:00 +5°C° 0.6 mm 4 mps 746 mmHg 88%
    07:00 +5°C° 0.6 mm 3 mps 746 mmHg 87%
    08:00 +5°C° 0.6 mm 3 mps 747 mmHg 85%
    09:00 +7°C° 0 mm 3 mps 747 mmHg 81%
    10:00 +6°C° 0 mm 4 mps 747 mmHg 77%
    11:00 +7°C° 0 mm 4 mps 748 mmHg 73%
    12:00 +7°C° 0 mm 4 mps 747 mmHg 71%
    13:00 +8°C° 0 mm 4 mps 747 mmHg 70%
    14:00 +8°C° 0 mm 4 mps 747 mmHg 68%
    15:00 +8°C° 0.1 mm 4 mps 747 mmHg 71%
    16:00 +8°C° 0.1 mm 3 mps 747 mmHg 73%
    17:00 +8°C° 0.1 mm 3 mps 747 mmHg 75%
    18:00 +7°C° 0 mm 3 mps 747 mmHg 78%
    19:00 +7°C° 0 mm 2 mps 747 mmHg 80%
    20:00 +7°C° 0 mm 2 mps 748 mmHg 83%
    21:00 +6°C° 0 mm 2 mps 748 mmHg 84%
    22:00 +6°C° 0 mm 2 mps 748 mmHg 86%
    23:00 +6°C° 0 mm 2 mps 748 mmHg 88%

    Day after tomorrow, 16 November, Friday

    Time Temperature Precipitation Wind Pressure Humidity
    00:00 +5°C° 0 mm 2 mps 748 mmHg 89%
    01:00 +5°C° 0 mm 2 mps 749 mmHg 91%
    02:00 +4°C° 0 mm 3 mps 749 mmHg 92%
    03:00 +3°C° 0 mm 3 mps 749 mmHg 92%
    04:00 +3°C° 0 mm 3 mps 749 mmHg 92%
    05:00 +3°C° 0 mm 3 mps 749 mmHg 92%
    06:00 +3°C° 0 mm 3 mps 749 mmHg 90%
    07:00 +3°C° 0 mm 4 mps 750 mmHg 88%
    08:00 +1°C° 0 mm 4 mps 750 mmHg 86%
    09:00 +2°C° 0.1 mm 5 mps 750 mmHg 81%
    10:00 +2°C° 0.1 mm 5 mps 750 mmHg 77%
    11:00 +2°C° 0.1 mm 5 mps 750 mmHg 72%
    12:00 +2°C° 0.2 mm 5 mps 750 mmHg 71%
    13:00 +3°C° 0.2 mm 5 mps 750 mmHg 69%
    14:00 +3°C° 0.2 mm 5 mps 750 mmHg 68%
    15:00 +3°C° 0.1 mm 5 mps 750 mmHg 66%
    16:00 +4°C° 0.1 mm 4 mps 750 mmHg 65%
    17:00 +3°C° 0.1 mm 4 mps 750 mmHg 63%
    18:00 +3°C° 0 mm 4 mps 751 mmHg 63%
    19:00 +3°C° 0 mm 4 mps 751 mmHg 64%
    20:00 +1°C° 0 mm 4 mps 751 mmHg 65%
    21:00 +1°C° 0 mm 4 mps 751 mmHg 66%
    22:00 +1°C° 0 mm 4 mps 751 mmHg 66%
    23:00 +1°C° 0 mm 4 mps 751 mmHg 67%

    17 November, Saturday

    Time Temperature Precipitation Wind Pressure Humidity
    00:00 0°C° 0 mm 4 mps 751 mmHg 68%
    01:00 0°C° 0 mm 4 mps 751 mmHg 69%
    02:00 0°C° 0 mm 4 mps 752 mmHg 69%
    03:00 0°C° 0 mm 4 mps 752 mmHg 70%
    04:00 -1°C° 0 mm 4 mps 752 mmHg 71%
    05:00 -1°C° 0 mm 4 mps 752 mmHg 72%
    06:00 -1°C° 0 mm 4 mps 752 mmHg 72%
    07:00 -1°C° 0 mm 4 mps 752 mmHg 72%
    08:00 -1°C° 0 mm 4 mps 752 mmHg 72%
    09:00 0°C° 0 mm 4 mps 752 mmHg 70%
    10:00 0°C° 0 mm 4 mps 753 mmHg 68%
    11:00 +1°C° 0 mm 4 mps 753 mmHg 66%
    12:00 +1°C° 0 mm 4 mps 752 mmHg 65%
    13:00 +1°C° 0 mm 4 mps 752 mmHg 65%
    14:00 +1°C° 0 mm 4 mps 752 mmHg 65%
    15:00 +2°C° 0 mm 3 mps 752 mmHg 66%
    16:00 +2°C° 0 mm 3 mps 752 mmHg 67%
    17:00 +1°C° 0 mm 3 mps 752 mmHg 69%
    18:00 +1°C° 0 mm 3 mps 753 mmHg 69%
    19:00 +2°C° 0 mm 2 mps 753 mmHg 70%
    20:00 +1°C° 0 mm 2 mps 753 mmHg 71%
    21:00 +1°C° 0 mm 2 mps 753 mmHg 70%
    22:00 +1°C° 0 mm 2 mps 753 mmHg 69%
    23:00 +1°C° 0 mm 2 mps 753 mmHg 69%

    18 November, Sunday

    Time Temperature Precipitation Wind Pressure Humidity
    00:00 +2°C° 0 mm 1 mps 753 mmHg 69%
    01:00 +1°C° 0 mm 1 mps 753 mmHg 70%
    02:00 +1°C° 0 mm 1 mps 753 mmHg 70%
    03:00 0°C° 0 mm 1 mps 752 mmHg 70%
    04:00 0°C° 0 mm 1 mps 752 mmHg 71%
    05:00 0°C° 0 mm 1 mps 752 mmHg 71%
    06:00 0°C° 0 mm 1 mps 752 mmHg 70%
    07:00 0°C° 0 mm 1 mps 752 mmHg 69%
    08:00 0°C° 0 mm 1 mps 752 mmHg 68%
    09:00 +1°C° 0 mm 2 mps 752 mmHg 62%
    10:00 +2°C° 0 mm 2 mps 752 mmHg 55%
    11:00 +3°C° 0 mm 2 mps 751 mmHg 49%
    12:00 +4°C° 0 mm 2 mps 751 mmHg 47%
    13:00 +5°C° 0 mm 2 mps 750 mmHg 45%
    14:00 +6°C° 0 mm 2 mps 749 mmHg 43%
    15:00 +5°C° 0 mm 2 mps 749 mmHg 46%
    16:00 +5°C° 0 mm 1 mps 748 mmHg 49%
    17:00 +4°C° 0 mm 1 mps 748 mmHg 53%
    18:00 +3°C° 0 mm 1 mps 747 mmHg 54%
    19:00 +3°C° 0 mm 1 mps 747 mmHg 55%
    20:00 +2°C° 0 mm 1 mps 746 mmHg 56%
    21:00 +1°C° 0 mm 0 mps 746 mmHg 57%
    22:00 +1°C° 0 mm 0 mps 746 mmHg 58%
    23:00 +1°C° 0 mm 0 mps 745 mmHg 58%

    19 November, Monday

    Time Temperature Precipitation Wind Pressure Humidity
    00:00 0°C° 0 mm 0 mps 745 mmHg 59%
    01:00 0°C° 0 mm 0 mps 744 mmHg 60%
    02:00 0°C° 0 mm 0 mps 743 mmHg 60%
    03:00 0°C° 0 mm 0 mps 743 mmHg 60%
    04:00 0°C° 0 mm 0 mps 742 mmHg 60%
    05:00 0°C° 0 mm 0 mps 742 mmHg 60%
    06:00 0°C° 0 mm 0 mps 742 mmHg 59%
    07:00 0°C° 0 mm 0 mps 742 mmHg 59%
    08:00 +1°C° 0 mm 1 mps 742 mmHg 58%
    09:00 +3°C° 0 mm 1 mps 742 mmHg 53%
    10:00 +5°C° 0 mm 1 mps 742 mmHg 48%
    11:00 +6°C° 0 mm 1 mps 742 mmHg 42%
    12:00 +7°C° 0 mm 1 mps 741 mmHg 42%
    13:00 +6°C° 0 mm 2 mps 741 mmHg 42%
    14:00 +6°C° 0 mm 2 mps 740 mmHg 42%
    15:00 +6°C° 0.1 mm 2 mps 740 mmHg 46%
    16:00 +5°C° 0.1 mm 2 mps 740 mmHg 50%
    17:00 +5°C° 0.1 mm 2 mps 740 mmHg 54%
    18:00 +4°C° 0.3 mm 2 mps 740 mmHg 58%
    19:00 +4°C° 0.3 mm 2 mps 740 mmHg 62%
    20:00 +5°C° 0.3 mm 1 mps 740 mmHg 67%
    21:00 +4°C° 0.5 mm 2 mps 740 mmHg 71%
    22:00 +4°C° 0.5 mm 2 mps 740 mmHg 76%
    23:00 +3°C° 0.5 mm 2 mps 740 mmHg 81%
    Show more